TimeHST,TemperatureF,Dew PointF,Humidity,Sea Level PressureIn,VisibilityMPH,Wind Direction,Wind SpeedMPH,Gust SpeedMPH,PrecipitationIn,Events,Conditions,WindDirDegrees,DateUTC
12:20 AM,66.2,64.4,94,30.15,10.0,NNE,10.4,-,N/A,,Mostly Cloudy,30,2013-02-08 10:20:00
12:56 AM,66.9,63.0,87,30.09,10.0,NNE,9.2,-,N/A,,Mostly Cloudy,20,2013-02-08 10:56:00
1:03 AM,66.2,62.6,88,30.15,10.0,NNE,10.4,-,N/A,,Scattered Clouds,30,2013-02-08 11:03:00
1:56 AM,65.8,63.0,90,30.08,10.0,NNE,10.4,-,N/A,,Clear,30,2013-02-08 11:56:00
2:56 AM,65.8,61.9,87,30.06,10.0,NE,10.4,-,N/A,,Clear,40,2013-02-08 12:56:00
3:56 AM,63.9,59.9,87,30.06,10.0,NE,8.1,-,N/A,,Clear,50,2013-02-08 13:56:00
4:56 AM,64.9,61.9,90,30.06,10.0,NNE,9.2,-,N/A,,Clear,30,2013-02-08 14:56:00
5:56 AM,64.9,61.9,90,30.08,10.0,NE,11.5,-,N/A,,Clear,40,2013-02-08 15:56:00
6:56 AM,64.9,61.9,90,30.11,10.0,NNE,13.8,-,0.00,,Clear,30,2013-02-08 16:56:00
7:56 AM,68.0,63.0,84,30.12,10.0,NNE,6.9,-,N/A,,Clear,30,2013-02-08 17:56:00
8:56 AM,72.0,61.0,68,30.12,10.0,ENE,10.4,-,N/A,,Clear,70,2013-02-08 18:56:00
9:56 AM,74.8,61.9,64,30.13,10.0,SE,10.4,-,N/A,,Clear,130,2013-02-08 19:56:00
10:56 AM,75.9,61.0,60,30.12,10.0,SE,11.5,-,N/A,,Clear,140,2013-02-08 20:56:00
11:56 AM,77.0,61.0,58,30.10,10.0,SSE,8.1,-,N/A,,Clear,150,2013-02-08 21:56:00
12:38 PM,77.0,62.6,61,30.15,10.0,NNE,8.1,-,N/A,,Mostly Cloudy,20,2013-02-08 22:38:00
12:56 PM,74.8,59.9,60,30.08,10.0,NE,10.4,-,N/A,,Scattered Clouds,40,2013-02-08 22:56:00
1:56 PM,74.8,61.0,62,30.05,10.0,NE,11.5,-,N/A,,Clear,40,2013-02-08 23:56:00
2:48 PM,75.2,62.6,65,30.10,10.0,NW,6.9,-,N/A,,Mostly Cloudy,310,2013-02-09 00:48:00
2:56 PM,73.9,63.0,68,30.04,10.0,Variable,6.9,-,N/A,,Mostly Cloudy,0,2013-02-09 00:56:00
3:19 PM,75.2,60.8,61,30.09,10.0,North,6.9,-,N/A,,Scattered Clouds,10,2013-02-09 01:19:00
3:56 PM,73.9,61.0,64,30.04,10.0,NNW,8.1,-,N/A,,Scattered Clouds,340,2013-02-09 01:56:00
4:22 PM,73.4,60.8,65,30.10,10.0,NNE,9.2,-,N/A,,Mostly Cloudy,30,2013-02-09 02:22:00
4:29 PM,73.4,62.6,69,30.10,10.0,NNE,9.2,-,N/A,,Scattered Clouds,30,2013-02-09 02:29:00
4:56 PM,72.0,61.9,70,30.05,10.0,NNE,13.8,-,N/A,,Clear,30,2013-02-09 02:56:00
5:56 PM,70.9,63.0,76,30.07,10.0,NE,13.8,-,N/A,,Clear,40,2013-02-09 03:56:00
6:56 PM,68.0,61.9,81,30.07,10.0,NE,16.1,-,N/A,,Clear,40,2013-02-09 04:56:00
7:56 PM,66.9,61.9,84,30.09,10.0,NE,16.1,-,N/A,,Clear,40,2013-02-09 05:56:00
8:56 PM,66.9,61.9,84,30.09,10.0,NE,16.1,21.9,N/A,,Clear,40,2013-02-09 06:56:00
9:56 PM,66.9,63.0,87,30.09,10.0,NNE,12.7,-,N/A,,Clear,30,2013-02-09 07:56:00
10:56 PM,63.9,61.0,90,30.10,10.0,ENE,6.9,-,N/A,,Clear,60,2013-02-09 08:56:00
11:56 PM,63.9,61.0,90,30.09,10.0,ENE,5.8,-,N/A,,Clear,70,2013-02-09 09:56:00